• en France
  • Liste des pays
  • À 7 jours
  • Température de l'eau
  • Carte satellitaire
  • Carte météo
  • Widgets météo
  • user-avatar
    Se connecter

    Météo par heure à Plymouth

    Ce jour, 21 Janvier, Dimanche

    Heure Température Précipitation Vent Pression Humidité
    00:00 +6°C° 0 mm 4 m/s 757 mmHg 92%
    01:00 +7°C° 0,3 mm 3 m/s 757 mmHg 92%
    02:00 +7°C° 0,3 mm 3 m/s 757 mmHg 93%
    03:00 +7°C° 0,3 mm 2 m/s 758 mmHg 94%
    04:00 +8°C° 0,3 mm 3 m/s 757 mmHg 95%
    05:00 +7°C° 0,3 mm 4 m/s 757 mmHg 95%
    06:00 +7°C° 0,3 mm 5 m/s 757 mmHg 96%
    07:00 +8°C° 0,2 mm 6 m/s 757 mmHg 96%
    08:00 +10°C° 0,2 mm 8 m/s 757 mmHg 96%
    09:00 +11°C° 0,2 mm 9 m/s 757 mmHg 96%
    10:00 +11°C° 0,1 mm 10 m/s 757 mmHg 95%
    11:00 +11°C° 0,1 mm 11 m/s 756 mmHg 93%
    12:00 +12°C° 0,1 mm 12 m/s 756 mmHg 92%
    13:00 +12°C° 0,2 mm 12 m/s 756 mmHg 92%
    14:00 +12°C° 0,2 mm 12 m/s 756 mmHg 93%
    15:00 +12°C° 0,2 mm 12 m/s 755 mmHg 93%
    16:00 +12°C° 0,6 mm 12 m/s 755 mmHg 93%
    17:00 +12°C° 0,6 mm 12 m/s 755 mmHg 93%
    18:00 +12°C° 0,6 mm 12 m/s 755 mmHg 93%
    19:00 +12°C° 0,3 mm 12 m/s 756 mmHg 93%
    20:00 +11°C° 0,3 mm 11 m/s 756 mmHg 93%
    21:00 +11°C° 0,3 mm 10 m/s 756 mmHg 93%
    22:00 +11°C° 0 mm 9 m/s 756 mmHg 92%
    23:00 +10°C° 0 mm 9 m/s 757 mmHg 91%

    Demain, 22 Janvier, Lundi

    Heure Température Précipitation Vent Pression Humidité
    00:00 +9°C° 0 mm 8 m/s 757 mmHg 90%
    01:00 +9°C° 0 mm 7 m/s 757 mmHg 89%
    02:00 +8°C° 0 mm 7 m/s 757 mmHg 89%
    03:00 +8°C° 0 mm 6 m/s 758 mmHg 89%
    04:00 +8°C° 0 mm 6 m/s 758 mmHg 90%
    05:00 +7°C° 0 mm 6 m/s 758 mmHg 90%
    06:00 +7°C° 0 mm 5 m/s 758 mmHg 91%
    07:00 +7°C° 0 mm 5 m/s 758 mmHg 91%
    08:00 +7°C° 0 mm 4 m/s 759 mmHg 91%
    09:00 +7°C° 0 mm 4 m/s 760 mmHg 91%
    10:00 +8°C° 0 mm 4 m/s 760 mmHg 87%
    11:00 +10°C° 0 mm 4 m/s 760 mmHg 84%
    12:00 +10°C° 0 mm 4 m/s 761 mmHg 80%
    13:00 +10°C° 0 mm 4 m/s 761 mmHg 81%
    14:00 +10°C° 0 mm 4 m/s 761 mmHg 82%
    15:00 +10°C° 0 mm 4 m/s 761 mmHg 82%
    16:00 +9°C° 0 mm 3 m/s 762 mmHg 84%
    17:00 +8°C° 0 mm 3 m/s 762 mmHg 86%
    18:00 +7°C° 0 mm 2 m/s 762 mmHg 88%
    19:00 +7°C° 0 mm 3 m/s 762 mmHg 89%
    20:00 +7°C° 0 mm 3 m/s 762 mmHg 90%
    21:00 +6°C° 0 mm 4 m/s 762 mmHg 91%
    22:00 +6°C° 0 mm 5 m/s 762 mmHg 92%
    23:00 +7°C° 0 mm 5 m/s 762 mmHg 94%

    Après-demain, 23 Janvier, Mardi

    Heure Température Précipitation Vent Pression Humidité
    00:00 +7°C° 0 mm 5 m/s 762 mmHg 95%
    01:00 +7°C° 0 mm 6 m/s 761 mmHg 95%
    02:00 +8°C° 0 mm 6 m/s 761 mmHg 96%
    03:00 +8°C° 0 mm 7 m/s 760 mmHg 97%
    04:00 +9°C° 0,2 mm 7 m/s 760 mmHg 97%
    05:00 +10°C° 0,2 mm 7 m/s 760 mmHg 97%
    06:00 +11°C° 0,2 mm 7 m/s 759 mmHg 97%
    07:00 +11°C° 0,2 mm 8 m/s 759 mmHg 96%
    08:00 +11°C° 0,2 mm 8 m/s 759 mmHg 96%
    09:00 +11°C° 0,2 mm 8 m/s 759 mmHg 95%
    10:00 +11°C° 0,1 mm 9 m/s 759 mmHg 94%
    11:00 +11°C° 0,1 mm 9 m/s 759 mmHg 93%
    12:00 +11°C° 0,1 mm 9 m/s 760 mmHg 93%
    13:00 +11°C° 0,1 mm 9 m/s 759 mmHg 93%
    14:00 +11°C° 0,1 mm 9 m/s 759 mmHg 93%
    15:00 +11°C° 0,1 mm 10 m/s 758 mmHg 93%
    16:00 +11°C° 0,1 mm 10 m/s 758 mmHg 93%
    17:00 +11°C° 0,1 mm 10 m/s 758 mmHg 93%
    18:00 +11°C° 0,1 mm 10 m/s 758 mmHg 93%
    19:00 +11°C° 0,1 mm 10 m/s 758 mmHg 94%
    20:00 +11°C° 0,1 mm 10 m/s 757 mmHg 94%
    21:00 +11°C° 0,1 mm 11 m/s 757 mmHg 94%
    22:00 +11°C° 0,2 mm 11 m/s 757 mmHg 94%
    23:00 +10°C° 0,2 mm 12 m/s 756 mmHg 94%

    24 Janvier, Mercredi

    Heure Température Précipitation Vent Pression Humidité
    00:00 +10°C° 0,2 mm 13 m/s 756 mmHg 93%
    01:00 +10°C° 0,1 mm 13 m/s 755 mmHg 93%
    02:00 +10°C° 0,1 mm 13 m/s 755 mmHg 92%
    03:00 +10°C° 0,1 mm 14 m/s 754 mmHg 92%
    04:00 +10°C° 0,3 mm 14 m/s 754 mmHg 91%
    05:00 +10°C° 0,3 mm 14 m/s 753 mmHg 91%
    06:00 +10°C° 0,3 mm 14 m/s 753 mmHg 91%
    07:00 +9°C° 0,5 mm 12 m/s 753 mmHg 91%
    08:00 +9°C° 0,5 mm 10 m/s 754 mmHg 90%
    09:00 +9°C° 0,5 mm 8 m/s 754 mmHg 90%
    10:00 +9°C° 0,3 mm 8 m/s 754 mmHg 89%
    11:00 +9°C° 0,3 mm 8 m/s 754 mmHg 87%
    12:00 +9°C° 0,3 mm 8 m/s 754 mmHg 86%
    13:00 +9°C° 0 mm 8 m/s 754 mmHg 82%
    14:00 +9°C° 0 mm 8 m/s 754 mmHg 79%
    15:00 +8°C° 0 mm 9 m/s 753 mmHg 76%
    16:00 +7°C° 0 mm 8 m/s 753 mmHg 77%
    17:00 +6°C° 0 mm 8 m/s 753 mmHg 78%
    18:00 +6°C° 0 mm 8 m/s 753 mmHg 80%
    19:00 +6°C° 0,2 mm 8 m/s 753 mmHg 81%
    20:00 +6°C° 0,2 mm 8 m/s 753 mmHg 82%
    21:00 +6°C° 0,2 mm 8 m/s 753 mmHg 83%
    22:00 +6°C° 0,5 mm 9 m/s 753 mmHg 83%
    23:00 +6°C° 0,5 mm 9 m/s 753 mmHg 84%

    25 Janvier, Jeudi

    Heure Température Précipitation Vent Pression Humidité
    00:00 +5°C° 0,5 mm 10 m/s 753 mmHg 84%
    01:00 +5°C° 0 mm 10 m/s 753 mmHg 82%
    02:00 +5°C° 0 mm 10 m/s 753 mmHg 81%
    03:00 +5°C° 0 mm 9 m/s 753 mmHg 79%
    04:00 +3°C° 0,1 mm 9 m/s 754 mmHg 79%
    05:00 +3°C° 0,1 mm 9 m/s 754 mmHg 79%
    06:00 +3°C° 0,1 mm 9 m/s 754 mmHg 80%
    07:00 +3°C° 0,1 mm 9 m/s 754 mmHg 79%
    08:00 +3°C° 0,1 mm 9 m/s 755 mmHg 79%
    09:00 +4°C° 0,1 mm 8 m/s 755 mmHg 79%
    10:00 +5°C° 0 mm 9 m/s 755 mmHg 76%
    11:00 +6°C° 0 mm 9 m/s 756 mmHg 73%
    12:00 +7°C° 0 mm 10 m/s 756 mmHg 70%
    13:00 +7°C° 0 mm 10 m/s 756 mmHg 70%
    14:00 +7°C° 0 mm 10 m/s 756 mmHg 71%
    15:00 +7°C° 0 mm 9 m/s 756 mmHg 71%
    16:00 +6°C° 0,1 mm 9 m/s 756 mmHg 75%
    17:00 +5°C° 0,1 mm 8 m/s 756 mmHg 78%
    18:00 +5°C° 0,1 mm 8 m/s 756 mmHg 81%
    19:00 +5°C° 0,3 mm 7 m/s 757 mmHg 82%
    20:00 +4°C° 0,3 mm 7 m/s 757 mmHg 82%
    21:00 +4°C° 0,3 mm 6 m/s 758 mmHg 83%
    22:00 +4°C° 0 mm 6 m/s 758 mmHg 83%
    23:00 +3°C° 0 mm 6 m/s 758 mmHg 84%

    26 Janvier, Vendredi

    Heure Température Précipitation Vent Pression Humidité
    00:00 +3°C° 0 mm 5 m/s 759 mmHg 84%
    01:00 +3°C° 0 mm 6 m/s 759 mmHg 86%
    02:00 +3°C° 0 mm 6 m/s 760 mmHg 87%
    03:00 +3°C° 0 mm 6 m/s 760 mmHg 88%
    04:00 +3°C° 0 mm 6 m/s 761 mmHg 88%
    05:00 +3°C° 0 mm 7 m/s 762 mmHg 88%
    06:00 +3°C° 0 mm 7 m/s 763 mmHg 89%
    07:00 +3°C° 0 mm 7 m/s 764 mmHg 88%
    08:00 +4°C° 0 mm 7 m/s 764 mmHg 87%
    09:00 +4°C° 0 mm 8 m/s 765 mmHg 86%
    10:00 +5°C° 0 mm 8 m/s 766 mmHg 83%
    11:00 +6°C° 0 mm 8 m/s 767 mmHg 80%
    12:00 +6°C° 0 mm 8 m/s 767 mmHg 77%
    13:00 +6°C° 0 mm 8 m/s 768 mmHg 77%
    14:00 +6°C° 0 mm 8 m/s 769 mmHg 77%
    15:00 +6°C° 0 mm 8 m/s 769 mmHg 77%
    16:00 +5°C° 0 mm 7 m/s 770 mmHg 80%
    17:00 +4°C° 0 mm 7 m/s 771 mmHg 83%
    18:00 +3°C° 0 mm 6 m/s 771 mmHg 87%
    19:00 +3°C° 0 mm 6 m/s 772 mmHg 88%
    20:00 +2°C° 0 mm 5 m/s 773 mmHg 88%
    21:00 +2°C° 0 mm 5 m/s 773 mmHg 89%
    22:00 +2°C° 0 mm 5 m/s 774 mmHg 90%
    23:00 +3°C° 0 mm 4 m/s 774 mmHg 90%
    Voir plus